#timestamp,LO_Frequency,Hit,StdDev 
1596078015.2,286047000.4,N
1596078035.1,286047000.7,N
1596078036.0,286047000.7,N
1596078055.8,286047000.7,N
1596078075.6,286047000.3,N
1596078095.8,286046998.5,Y
1596078115.7,286046998.5,P
1596078135.5,286046998.6,N
1596078155.4,286047000.6,N
1596078175.2,286047002.7,N
1596078195.0,286047000.7,N
1596078195.9,286047000.7,N
1596078215.8,286046998.2,N
1596078235.6,286046998.4,N
1596078255.4,286046999.1,N
1596078275.3,286046996.8,N
1596078295.1,286046999.5,N
1596078315.9,286046998.8,N
1596078335.7,286046998.7,N
1596078355.5,286046998.4,N
1596078375.4,286046999.4,N
1596078395.2,286046999.0,N
1596078415.0,286046996.7,N
1596078416.0,286046996.7,N
1596078435.8,286046999.2,N
1596078455.6,286046999.3,N
1596078475.5,286046999.1,N
1596078495.3,286046998.9,N
1596078515.1,286046999.3,N
1596078535.9,286046996.7,N
1596078555.7,286046999.3,N
1596078575.6,286046999.4,N
1596078595.4,286046999.3,N
1596078615.2,286046998.7,N
1596078635.1,286046998.9,N
1596078636.0,286046998.9,N
1596078655.8,286047000.8,N
1596078675.7,286046999.3,N
1596078695.5,286046998.3,N
1596078715.3,286046999.3,N
1596078735.2,286046998.4,N
1596078755.0,286046998.9,N
1596078755.9,286046998.9,N
1596078775.8,286046999.1,N
1596078795.6,286046999.2,N
1596078815.4,286046999.1,N
1596078835.3,286046999.3,N
1596078855.1,286046999.0,N
1596078875.8,286046999.1,N
1596078895.7,286046999.3,N
1596078915.5,286046998.1,N
1596078935.4,286047001.2,N
1596078955.2,286046998.2,N
1596078975.0,286047000.3,N
1596078975.9,286047000.3,N
1596078995.8,286047002.7,Y
1596079015.6,286047002.8,P
1596079035.5,286047000.6,N
1596079055.3,286046998.6,N
1596079075.1,286047001.0,N
1596079095.9,286046999.0,N
1596079115.7,286046998.8,N
1596079135.6,286046999.1,N
1596079155.4,286046998.3,N
1596079175.2,286047001.1,N
1596079195.1,286046999.7,N
1596079196.0,286046999.7,N
1596079215.8,286046998.3,N
1596079235.6,286046998.3,N
1596079255.5,286046996.5,N
1596079275.3,286046999.2,N
1596079295.2,286046997.1,N
1596079315.9,286046997.2,N
1596079335.7,286046996.4,N
1596079355.6,286046997.9,N
1596079375.4,286046994.9,Y
1596079395.3,286046994.9,P
1596079415.1,286046995.0,N
1596079416.0,286046995.0,N
1596079435.8,286046997.2,N
1596079455.7,286046995.4,N
1596079475.5,286046997.8,N
1596079495.4,286046997.6,N
1596079515.2,286046996.7,N
1596079535.0,286046995.4,Y
1596079535.9,286046995.4,P
1596079555.8,286047000.4,N
1596079575.6,286046999.8,N
1596079595.4,286047000.8,N
1596079615.3,286047001.2,N
1596079635.1,286046999.9,N
1596079655.9,286047000.9,N
1596079675.7,286047000.9,N
1596079695.5,286046998.2,N
1596079715.4,286047000.4,N
1596079735.2,286047000.6,N
1596079755.0,286046998.5,N
1596079756.0,286046998.5,N
1596079775.8,286046998.1,N
1596079795.6,286046998.1,N
1596079815.5,286046998.9,N
1596079835.3,286046999.3,N
1596079855.1,286046999.4,N
1596079875.9,286046997.1,N
1596079895.7,286046997.3,N
1596079915.6,286046997.1,N
1596079935.4,286046999.5,N
1596079955.2,286046999.6,N
1596079975.1,286046997.2,N
1596079976.0,286046997.2,N
1596079995.8,286046999.6,N
1596080015.7,286046998.6,N
1596080035.5,286047001.2,N
1596080055.3,286047000.3,N
1596080075.2,286047000.3,N
1596080095.0,286047000.6,N
1596080095.9,286047000.6,N
1596080115.7,286047000.8,N
1596080135.6,286047000.6,N
1596080155.4,286047000.7,N
1596080175.3,286047001.1,N
1596080195.1,286047000.9,N
1596080215.8,286047000.2,N
1596080235.7,286047002.6,N
1596080255.5,286047002.2,N
1596080275.4,286047002.3,N
1596080295.2,286046999.7,N
1596080315.0,286047002.4,N
1596080315.9,286047002.4,N
1596080335.8,286047002.2,N
1596080355.6,286047001.3,N
1596080375.4,286047003.9,N
1596080395.3,286047001.9,N
1596080415.1,286047001.5,N
1596080435.9,286047003.8,N
1596080455.7,286047004.1,N
1596080475.5,286047004.1,N
1596080495.4,286047004.0,N
1596080515.2,286047001.7,N
1596080535.1,286046999.7,N
1596080536.0,286047011.9,Y
1596080555.8,286047000.9,P
1596080575.6,286046999.9,N
1596080595.5,286046999.9,N
1596080615.3,286047002.4,Y
1596080635.2,286046999.7,P
1596080655.9,286046999.7,N
1596080675.7,286047002.8,P
1596080695.6,286047002.2,N
1596080715.4,286047002.1,N
1596080735.2,286047002.6,N
1596080755.1,286047002.4,N
1596080756.0,286047002.4,N
1596080775.8,286047000.6,N
1596080795.7,286047000.3,N
1596080815.5,286047002.6,N
1596080835.3,286047001.8,N
1596080855.2,286047002.5,N
1596080875.0,286047001.4,N
1596080875.9,286047001.4,N
1596080895.8,286047001.7,N
1596080915.6,286046999.7,N
1596080935.4,286047002.5,N
1596080955.3,286047002.1,N
1596080975.1,286047002.1,N
1596080995.8,286047001.7,N
1596081015.7,286047001.8,N
1596081035.5,286047001.3,N
1596081055.4,286047001.8,N
1596081075.2,286047001.9,N
1596081095.0,286047001.5,N
1596081095.9,286047001.5,N
1596081115.8,286047001.3,N
1596081135.6,286047004.1,Y
1596081155.5,286047001.7,P
1596081175.3,286046999.8,P
1596081195.1,286047000.6,N
1596081215.9,286047000.7,N
1596081235.7,286046998.1,N
1596081255.5,286046998.1,N
1596081275.4,286047000.6,N
1596081295.2,286046999.9,N
1596081315.1,286047001.8,N
1596081316.0,286047001.8,N
1596081335.8,286047001.6,N
1596081355.6,286047002.4,N
1596081375.5,286047000.2,N
1596081395.3,286047000.1,N
1596081415.2,286047001.3,N
1596081435.0,286047001.6,N
1596081435.9,286047001.6,N
1596081455.7,286047002.4,N
1596081475.6,286047002.2,N
1596081495.4,286047000.1,N
1596081515.3,286047000.1,N
1596081535.1,286047002.8,N
1596081536.0,286047002.8,N
1596081555.8,286047001.5,N
1596081575.7,286047002.5,N
1596081595.5,286047002.7,N
